When you browse on this site, cookies collect data to enhance your experience and personalize the content and advertising you see.
Visit our Privacy Policy to learn more. By continuing to use the site, you agree to this use of cookies and data.
  • In United Kingdom
  • List of Countries
  • For 7 days
  • Water Temperature
  • Weather Map
  • Weather Widgets
  • user-avatar
    Login

    Hourly Weather Kalemie

    Today, 19 September, Thursday

    Time Temperature Precipitation Wind Pressure Humidity
    00:00 +22°C° 0 mm 1 mps 705 mmHg 96%
    01:00 +22°C° 0 mm 1 mps 705 mmHg 96%
    02:00 +22°C° 0 mm 1 mps 704 mmHg 97%
    03:00 +22°C° 0 mm 1 mps 704 mmHg 96%
    04:00 +21°C° 0 mm 1 mps 705 mmHg 96%
    05:00 +21°C° 0 mm 1 mps 705 mmHg 96%
    06:00 +23°C° 0 mm 1 mps 705 mmHg 91%
    07:00 +23°C° 0 mm 0 mps 706 mmHg 85%
    08:00 +24°C° 0 mm 0 mps 707 mmHg 79%
    09:00 +26°C° 0 mm 0 mps 707 mmHg 71%
    10:00 +31°C° 0 mm 1 mps 707 mmHg 64%
    11:00 +33°C° 0 mm 1 mps 707 mmHg 56%
    12:00 +33°C° 0 mm 1 mps 707 mmHg 53%
    13:00 +34°C° 0 mm 1 mps 706 mmHg 51%
    14:00 +34°C° 0 mm 1 mps 705 mmHg 48%
    15:00 +33°C° 0 mm 1 mps 705 mmHg 54%
    16:00 +32°C° 0 mm 1 mps 704 mmHg 60%
    17:00 +31°C° 0 mm 1 mps 704 mmHg 67%
    18:00 +29°C° 0 mm 1 mps 704 mmHg 70%
    19:00 +27°C° 0 mm 1 mps 704 mmHg 73%
    20:00 +23°C° 0 mm 0 mps 705 mmHg 77%
    21:00 +23°C° 0 mm 0 mps 705 mmHg 79%
    22:00 +22°C° 0 mm 0 mps 705 mmHg 81%
    23:00 +22°C° 0 mm 0 mps 705 mmHg 84%

    Tomorrow, 20 September, Friday

    Time Temperature Precipitation Wind Pressure Humidity
    00:00 +21°C° 0 mm 0 mps 704 mmHg 85%
    01:00 +21°C° 0 mm 0 mps 704 mmHg 86%
    02:00 +21°C° 0 mm 0 mps 704 mmHg 87%
    03:00 +21°C° 0 mm 0 mps 704 mmHg 88%
    04:00 +20°C° 0 mm 0 mps 704 mmHg 89%
    05:00 +20°C° 0 mm 0 mps 704 mmHg 90%
    06:00 +22°C° 0 mm 0 mps 705 mmHg 86%
    07:00 +24°C° 0 mm 0 mps 706 mmHg 82%
    08:00 +25°C° 0 mm 0 mps 707 mmHg 77%
    09:00 +27°C° 0.1 mm 0 mps 707 mmHg 71%
    10:00 +30°C° 0.1 mm 0 mps 707 mmHg 65%
    11:00 +32°C° 0.1 mm 0 mps 707 mmHg 59%
    12:00 +32°C° 2.1 mm 1 mps 706 mmHg 63%
    13:00 +31°C° 2.1 mm 1 mps 705 mmHg 68%
    14:00 +30°C° 2.1 mm 1 mps 704 mmHg 73%
    15:00 +29°C° 0.2 mm 1 mps 704 mmHg 76%
    16:00 +26°C° 0.2 mm 0 mps 704 mmHg 79%
    17:00 +25°C° 0.2 mm 0 mps 703 mmHg 82%
    18:00 +24°C° 0 mm 0 mps 704 mmHg 82%
    19:00 +25°C° 0 mm 1 mps 704 mmHg 83%
    20:00 +24°C° 0 mm 1 mps 705 mmHg 84%
    21:00 +22°C° 0 mm 0 mps 705 mmHg 86%
    22:00 +22°C° 0 mm 0 mps 705 mmHg 88%
    23:00 +21°C° 0 mm 0 mps 705 mmHg 90%

    Day after tomorrow, 21 September, Saturday

    Time Temperature Precipitation Wind Pressure Humidity
    00:00 +21°C° 0.1 mm 0 mps 705 mmHg 91%
    01:00 +21°C° 0.1 mm 0 mps 704 mmHg 91%
    02:00 +21°C° 0.1 mm 0 mps 704 mmHg 92%
    03:00 +21°C° 0 mm 0 mps 704 mmHg 91%
    04:00 +21°C° 0 mm 0 mps 704 mmHg 91%
    05:00 +21°C° 0 mm 0 mps 705 mmHg 91%
    06:00 +22°C° 0 mm 0 mps 705 mmHg 88%
    07:00 +24°C° 0 mm 0 mps 706 mmHg 85%
    08:00 +25°C° 0 mm 0 mps 707 mmHg 82%
    09:00 +29°C° 0.7 mm 1 mps 706 mmHg 75%
    10:00 +30°C° 0.7 mm 1 mps 706 mmHg 67%
    11:00 +32°C° 0.7 mm 1 mps 706 mmHg 60%
    12:00 +33°C° 0 mm 1 mps 706 mmHg 56%
    13:00 +33°C° 0 mm 1 mps 705 mmHg 53%
    14:00 +33°C° 0 mm 1 mps 704 mmHg 50%
    15:00 +33°C° 0 mm 1 mps 704 mmHg 56%
    16:00 +32°C° 0 mm 1 mps 703 mmHg 62%
    17:00 +31°C° 0 mm 1 mps 703 mmHg 68%
    18:00 +29°C° 0 mm 1 mps 703 mmHg 72%
    19:00 +27°C° 0 mm 1 mps 704 mmHg 76%
    20:00 +23°C° 0 mm 0 mps 704 mmHg 80%
    21:00 +23°C° 0.2 mm 0 mps 704 mmHg 82%
    22:00 +22°C° 0.2 mm 0 mps 704 mmHg 85%
    23:00 +22°C° 0.2 mm 0 mps 704 mmHg 88%

    22 September, Sunday

    Time Temperature Precipitation Wind Pressure Humidity
    00:00 +23°C° 0 mm 1 mps 704 mmHg 89%
    01:00 +23°C° 0 mm 1 mps 704 mmHg 90%
    02:00 +23°C° 0 mm 1 mps 704 mmHg 92%
    03:00 +22°C° 0.1 mm 1 mps 704 mmHg 93%
    04:00 +22°C° 0.1 mm 1 mps 704 mmHg 95%
    05:00 +22°C° 0.1 mm 1 mps 705 mmHg 97%
    06:00 +23°C° 0.1 mm 1 mps 705 mmHg 94%
    07:00 +24°C° 0.1 mm 1 mps 706 mmHg 91%
    08:00 +25°C° 0.1 mm 1 mps 707 mmHg 88%
    09:00 +27°C° 1.3 mm 2 mps 706 mmHg 86%
    10:00 +28°C° 1.3 mm 2 mps 706 mmHg 84%
    11:00 +29°C° 1.3 mm 2 mps 706 mmHg 81%
    12:00 +31°C° 0.5 mm 2 mps 706 mmHg 73%
    13:00 +32°C° 0.5 mm 1 mps 705 mmHg 64%
    14:00 +32°C° 0.5 mm 0 mps 705 mmHg 55%
    15:00 +30°C° 0.9 mm 0 mps 705 mmHg 66%
    16:00 +30°C° 0.9 mm 1 mps 704 mmHg 76%
    17:00 +28°C° 0.9 mm 1 mps 704 mmHg 86%
    18:00 +27°C° 0 mm 1 mps 704 mmHg 87%
    19:00 +25°C° 0 mm 1 mps 705 mmHg 88%
    20:00 +24°C° 0 mm 1 mps 705 mmHg 90%
    21:00 +24°C° 0.2 mm 1 mps 705 mmHg 91%
    22:00 +23°C° 0.2 mm 1 mps 705 mmHg 92%
    23:00 +23°C° 0.2 mm 1 mps 705 mmHg 93%

    23 September, Monday

    Time Temperature Precipitation Wind Pressure Humidity
    00:00 +23°C° 0 mm 1 mps 705 mmHg 94%
    01:00 +23°C° 0 mm 1 mps 705 mmHg 94%
    02:00 +22°C° 0 mm 1 mps 705 mmHg 95%
    03:00 +22°C° 0 mm 1 mps 705 mmHg 95%
    04:00 +22°C° 0 mm 1 mps 705 mmHg 95%
    05:00 +22°C° 0 mm 1 mps 705 mmHg 95%
    06:00 +23°C° 0.5 mm 1 mps 706 mmHg 93%
    07:00 +24°C° 0.5 mm 1 mps 707 mmHg 90%
    08:00 +25°C° 0.5 mm 1 mps 707 mmHg 88%
    09:00 +28°C° 0 mm 1 mps 707 mmHg 78%
    10:00 +30°C° 0 mm 1 mps 707 mmHg 68%
    11:00 +33°C° 0 mm 1 mps 707 mmHg 58%
    12:00 +32°C° 1 mm 1 mps 707 mmHg 61%
    13:00 +32°C° 1 mm 1 mps 706 mmHg 63%
    14:00 +32°C° 1 mm 1 mps 705 mmHg 65%
    15:00 +31°C° 0.2 mm 1 mps 705 mmHg 68%
    16:00 +30°C° 0.2 mm 1 mps 705 mmHg 70%
    17:00 +30°C° 0.2 mm 1 mps 704 mmHg 72%
    18:00 +28°C° 0 mm 1 mps 704 mmHg 75%
    19:00 +26°C° 0 mm 1 mps 704 mmHg 78%
    20:00 +23°C° 0 mm 0 mps 705 mmHg 81%
    21:00 +24°C° 0.1 mm 1 mps 705 mmHg 83%
    22:00 +24°C° 0.1 mm 1 mps 705 mmHg 84%
    23:00 +24°C° 0.1 mm 1 mps 705 mmHg 86%

    24 September, Tuesday

    Time Temperature Precipitation Wind Pressure Humidity
    00:00 +23°C° 0 mm 1 mps 705 mmHg 88%
    01:00 +23°C° 0 mm 1 mps 704 mmHg 90%
    02:00 +22°C° 0 mm 1 mps 704 mmHg 91%
    03:00 +22°C° 0 mm 1 mps 705 mmHg 93%
    04:00 +22°C° 0 mm 1 mps 705 mmHg 94%
    05:00 +22°C° 0 mm 1 mps 705 mmHg 95%
    06:00 +23°C° 0.4 mm 1 mps 706 mmHg 93%
    07:00 +24°C° 0.4 mm 1 mps 706 mmHg 91%
    08:00 +25°C° 0.4 mm 1 mps 707 mmHg 89%
    09:00 +27°C° 1.1 mm 1 mps 707 mmHg 84%
    10:00 +29°C° 1.1 mm 1 mps 707 mmHg 79%
    11:00 +30°C° 1.1 mm 1 mps 706 mmHg 74%
    12:00 +31°C° 0.2 mm 1 mps 706 mmHg 67%
    13:00 +33°C° 0.2 mm 1 mps 705 mmHg 59%
    14:00 +34°C° 0.2 mm 1 mps 705 mmHg 52%
    15:00 +31°C° 0 mm 0 mps 705 mmHg 57%
    16:00 +30°C° 0 mm 0 mps 704 mmHg 62%
    17:00 +29°C° 0 mm 0 mps 704 mmHg 66%
    18:00 +27°C° 0.1 mm 0 mps 704 mmHg 72%
    19:00 +25°C° 0.1 mm 0 mps 704 mmHg 77%
    20:00 +23°C° 0.1 mm 0 mps 704 mmHg 82%
    21:00 +23°C° 0 mm 0 mps 704 mmHg 84%
    22:00 +22°C° 0 mm 0 mps 705 mmHg 85%
    23:00 +22°C° 0 mm 0 mps 705 mmHg 87%
    Show more